Regional Weather Roundup
Issued by NWS

Home | Current Version | Previous Version | Graphics & Text | Print | Product List | Glossary Off
Versions: 1 2 3 4 5 6 7 8 9 10 11 12 13 14 15 16 17 18 19 20 21 22 23 24 25 26 27 28 29 30 31 32 33 34 35 36 37 38 39 40 41 42 43 44 45 46 47 48 49 50

000
ASUS43 KOAX 270910
RWRNE

WEATHER ROUNDUP FOR NEBRASKA
NATIONAL WEATHER SERVICE OMAHA NE
400 AM CDT MON APR 27 2015

NOTES: SATELLITE DATA IS BEING USED TO AUGMENT CLOUD COVER ABOVE
       12000 FEET.
       "FAIR" INDICATES FEW OR NO CLOUDS BELOW 12,000 FEET WITH NO
       SIGNIFICANT WEATHER AND/OR OBSTRUCTIONS TO VISIBILITY.

  * THESE STATIONS DO NOT REPORT WEATHER SUCH AS RAIN...SNOW OR FOG.

NEZ001>004-019>022-054>056-271000-
NEBRASKA PANHANDLE

CITY           SKY/WX    TMP DP  RH WIND       PRES   REMARKS
SCOTTSBLUFF    CLOUDY    44 N/A N/A CALM      30.16R
ALLIANCE       CLOUDY    43  40  89 CALM      30.15S
CHADRON        CLOUDY    42  40  92 W3        30.17R
KIMBALL        CLOUDY    40  40  99 CALM      30.13R FOG
SIDNEY         CLOUDY    42  41  96 NE6       30.15R FOG
$$

NEZ057>060-069>072-079>082-271000-
SOUTHWEST NEBRASKA

CITY           SKY/WX    TMP DP  RH WIND       PRES   REMARKS
IMPERIAL       CLOUDY    46  42  86 NE5       30.12S
LEXINGTON      CLEAR     35  33  92 NW6       30.13S FOG     WCI  30
MCCOOK         CLEAR     44  39  82 NE10      30.10S
OGALLALA       CLOUDY    46  44  91 N6        30.15R
$$

NEZ005>010-023>029-035>040-094-271000-
NORTH CENTRAL NEBRASKA

CITY           SKY/WX    TMP DP  RH WIND       PRES   REMARKS
VALENTINE      CLEAR     35  31  85 NW7       30.16R WCI  29
AINSWORTH      CLEAR     37  30  77 W5        30.16R WCI  33
BROKEN BOW     PTCLDY    35  31  85 N3        30.13S
O`NEILL        PTCLDY    38  32  79 W3        30.15R
ORD            PTCLDY    34  30  85 NW5       30.13R WCI  30
THEDFORD       CLEAR     37  36  96 W5        30.16S FOG     WCI  34
$$

NEZ041-046>049-061>064-073>077-083>087-271000-
SOUTH CENTRAL NEBRASKA

CITY           SKY/WX    TMP DP  RH WIND       PRES   REMARKS
GRAND ISLAND   PTCLDY    37  33  85 NW5       30.14R WCI  33
AURORA         PTCLDY    38  36  91 N9        30.12R WCI  32
HASTINGS       CLEAR     39  34  82 N5        30.12R
HEBRON         PTCLDY    36  33  89 CALM      30.11R
HOLDREGE       PTCLDY    37  34  89 N6        30.11F WCI  33
KEARNEY *      PTCLDY    39  34  81 NW8       30.13R WCI  34
YORK           PTCLDY    37  36  93 N6        30.13R WCI  33
$$

NEZ011>018-030>034-042>045-271000-
NORTHEAST NEBRASKA

CITY           SKY/WX    TMP DP  RH WIND       PRES   REMARKS
NORFOLK        PTCLDY    37  33  85 SW6       30.15R WCI  32
ALBION         MOCLDY    34  31  88 N5        30.15R WCI  30
BLAIR          PTCLDY    42  33  70 N5        30.12R
COLUMBUS *     MOCLDY    37  30  75 NW3       30.15R
FREMONT        MOCLDY    42  36  80 CALM      30.14R
TEKAMAH        PTCLDY    39  34  82 NW8       30.15R WCI  33
WAYNE          CLEAR     32  28  84 CALM      30.15R
$$

NEZ050>053-065>068-078-088>093-271000-
SOUTHEAST NEBRASKA

CITY           SKY/WX    TMP DP  RH WIND       PRES   REMARKS
LINCOLN        PTCLDY    37  34  89 N9        30.12S WCI  30
OMAHA EPPLEY   PTCLDY    40  35  83 N3        30.13R
BEATRICE       CLEAR     42  34  74 NE3       30.11R
FALLS CITY     PTCLDY    44  31  60 NE5       30.09R
NEBRASKA CITY  CLEAR     42  29  60 N5        30.11R
PLATTSMOUTH    PTCLDY    46  31  55 NE3       30.11R
$$

NEZ044-045-051>053-067-271000-
OMAHA AREA

CITY           SKY/WX    TMP DP  RH WIND       PRES   REMARKS
OMAHA EPPLEY   PTCLDY    40  35  83 N3        30.13R
BLAIR          PTCLDY    42  33  70 N5        30.12R
FREMONT        MOCLDY    42  36  80 CALM      30.14R
MILLARD        MOCLDY    42  35  77 CALM      30.13R
OFFUTT AFB     PTCLDY    40  33  75 W6        30.12R
PLATTSMOUTH    PTCLDY    46  31  55 NE3       30.11R
WAHOO          FAIR      40  35  80 N8        30.13R WCI  35
$$


USA.gov is the U.S. government's official web portal to all federal, state and local government web resources and services.